When you browse on this site, cookies collect data to enhance your experience and personalize the content and advertising you see.
Visit our Privacy Policy to learn more. By continuing to use the site, you agree to this use of cookies and data.
  • En España
  • Lista de países
  • Para 7 días
  • Temperatura del agua
  • El tiempo en el mapa
  • Informadores
  • user-avatar
    Iniciar sesión

    Tiempo cada hora Punta Arenas

    Hoy, 22 Enero, Miércoles

    Tiempo Temperatura Precipitaciones Viento Presión Humedad
    00:00 +5°C° 0 mm 4 mps 756 mmHg 88%
    01:00 +5°C° 0 mm 3 mps 756 mmHg 90%
    02:00 +5°C° 0 mm 3 mps 757 mmHg 90%
    03:00 +5°C° 0 mm 3 mps 757 mmHg 90%
    04:00 +5°C° 0 mm 3 mps 757 mmHg 90%
    05:00 +7°C° 0 mm 3 mps 757 mmHg 85%
    06:00 +8°C° 0 mm 3 mps 757 mmHg 81%
    07:00 +9°C° 0 mm 3 mps 757 mmHg 76%
    08:00 +10°C° 0 mm 3 mps 756 mmHg 69%
    09:00 +11°C° 0 mm 3 mps 756 mmHg 61%
    10:00 +13°C° 0 mm 2 mps 756 mmHg 53%
    11:00 +13°C° 0 mm 3 mps 755 mmHg 51%
    12:00 +13°C° 0 mm 3 mps 755 mmHg 49%
    13:00 +14°C° 0 mm 3 mps 754 mmHg 46%
    14:00 +14°C° 0 mm 4 mps 754 mmHg 47%
    15:00 +14°C° 0 mm 4 mps 753 mmHg 47%
    16:00 +14°C° 0 mm 5 mps 753 mmHg 48%
    17:00 +13°C° 0.6 mm 5 mps 752 mmHg 62%
    18:00 +10°C° 0.6 mm 5 mps 752 mmHg 76%
    19:00 +9°C° 0.6 mm 5 mps 751 mmHg 90%
    20:00 +8°C° 0.8 mm 5 mps 751 mmHg 91%
    21:00 +8°C° 0.8 mm 5 mps 750 mmHg 92%
    22:00 +8°C° 0.8 mm 5 mps 750 mmHg 93%
    23:00 +7°C° 0.1 mm 4 mps 749 mmHg 94%

    Mañana, 23 Enero, Jueves

    Tiempo Temperatura Precipitaciones Viento Presión Humedad
    00:00 +6°C° 0.1 mm 4 mps 749 mmHg 95%
    01:00 +6°C° 0.1 mm 4 mps 748 mmHg 96%
    02:00 +5°C° 0 mm 3 mps 747 mmHg 96%
    03:00 +6°C° 0 mm 2 mps 747 mmHg 96%
    04:00 +6°C° 0 mm 2 mps 746 mmHg 96%
    05:00 +7°C° 0 mm 3 mps 746 mmHg 92%
    06:00 +8°C° 0 mm 4 mps 745 mmHg 88%
    07:00 +9°C° 0 mm 5 mps 745 mmHg 84%
    08:00 +10°C° 0.1 mm 5 mps 744 mmHg 76%
    09:00 +11°C° 0.1 mm 6 mps 744 mmHg 68%
    10:00 +12°C° 0.1 mm 7 mps 743 mmHg 59%
    11:00 +12°C° 0.1 mm 7 mps 743 mmHg 59%
    12:00 +12°C° 0.1 mm 8 mps 743 mmHg 59%
    13:00 +12°C° 0.1 mm 8 mps 742 mmHg 59%
    14:00 +11°C° 0.2 mm 8 mps 742 mmHg 63%
    15:00 +10°C° 0.2 mm 8 mps 743 mmHg 67%
    16:00 +8°C° 0.2 mm 9 mps 743 mmHg 71%
    17:00 +7°C° 0.1 mm 8 mps 743 mmHg 76%
    18:00 +6°C° 0.1 mm 8 mps 744 mmHg 80%
    19:00 +5°C° 0.1 mm 7 mps 744 mmHg 84%
    20:00 +5°C° 0.1 mm 8 mps 744 mmHg 84%
    21:00 +5°C° 0.1 mm 8 mps 745 mmHg 83%
    22:00 +5°C° 0.1 mm 9 mps 745 mmHg 83%
    23:00 +5°C° 0 mm 8 mps 745 mmHg 81%

    Pasado mañana, 24 Enero, Viernes

    Tiempo Temperatura Precipitaciones Viento Presión Humedad
    00:00 +5°C° 0 mm 7 mps 745 mmHg 80%
    01:00 +4°C° 0 mm 6 mps 745 mmHg 78%
    02:00 +5°C° 0 mm 5 mps 745 mmHg 78%
    03:00 +5°C° 0 mm 4 mps 744 mmHg 78%
    04:00 +7°C° 0 mm 2 mps 744 mmHg 77%
    05:00 +5°C° 1.1 mm 4 mps 743 mmHg 83%
    06:00 +4°C° 1.1 mm 7 mps 742 mmHg 89%
    07:00 +3°C° 1.1 mm 9 mps 741 mmHg 95%
    08:00 +5°C° 1.3 mm 8 mps 741 mmHg 94%
    09:00 +5°C° 1.3 mm 7 mps 741 mmHg 92%
    10:00 +6°C° 1.3 mm 7 mps 740 mmHg 91%
    11:00 +8°C° 0.1 mm 7 mps 740 mmHg 88%
    12:00 +9°C° 0.1 mm 7 mps 740 mmHg 84%
    13:00 +10°C° 0.1 mm 8 mps 740 mmHg 80%
    14:00 +9°C° 0.1 mm 8 mps 741 mmHg 82%
    15:00 +9°C° 0.1 mm 7 mps 741 mmHg 83%
    16:00 +8°C° 0.1 mm 7 mps 742 mmHg 84%
    17:00 +8°C° 0.2 mm 6 mps 742 mmHg 86%
    18:00 +8°C° 0.2 mm 6 mps 743 mmHg 88%
    19:00 +8°C° 0.2 mm 5 mps 743 mmHg 90%
    20:00 +8°C° 0 mm 4 mps 743 mmHg 90%
    21:00 +8°C° 0 mm 4 mps 744 mmHg 90%
    22:00 +9°C° 0 mm 3 mps 744 mmHg 90%
    23:00 +8°C° 0 mm 4 mps 744 mmHg 89%

    25 Enero, Sábado

    Tiempo Temperatura Precipitaciones Viento Presión Humedad
    00:00 +8°C° 0 mm 5 mps 745 mmHg 87%
    01:00 +8°C° 0 mm 5 mps 745 mmHg 86%
    02:00 +8°C° 0 mm 5 mps 745 mmHg 84%
    03:00 +8°C° 0 mm 5 mps 746 mmHg 82%
    04:00 +8°C° 0 mm 4 mps 746 mmHg 80%
    05:00 +8°C° 0 mm 5 mps 745 mmHg 80%
    06:00 +8°C° 0 mm 5 mps 745 mmHg 81%
    07:00 +8°C° 0 mm 6 mps 745 mmHg 81%
    08:00 +9°C° 0.1 mm 6 mps 745 mmHg 82%
    09:00 +9°C° 0.1 mm 7 mps 744 mmHg 82%
    10:00 +9°C° 0.1 mm 7 mps 743 mmHg 83%
    11:00 +9°C° 0.5 mm 8 mps 743 mmHg 83%
    12:00 +7°C° 0.5 mm 9 mps 743 mmHg 83%
    13:00 +7°C° 0.5 mm 10 mps 743 mmHg 83%
    14:00 +7°C° 0.7 mm 11 mps 744 mmHg 85%
    15:00 +7°C° 0.7 mm 11 mps 744 mmHg 87%
    16:00 +7°C° 0.7 mm 12 mps 744 mmHg 89%
    17:00 +7°C° 0.3 mm 11 mps 745 mmHg 87%
    18:00 +7°C° 0.3 mm 11 mps 746 mmHg 85%
    19:00 +6°C° 0.3 mm 10 mps 746 mmHg 84%
    20:00 +6°C° 0 mm 10 mps 747 mmHg 82%
    21:00 +6°C° 0 mm 9 mps 747 mmHg 81%
    22:00 +6°C° 0 mm 9 mps 747 mmHg 79%
    23:00 +6°C° 0 mm 9 mps 748 mmHg 78%

    26 Enero, Domingo

    Tiempo Temperatura Precipitaciones Viento Presión Humedad
    00:00 +6°C° 0 mm 10 mps 748 mmHg 76%
    01:00 +6°C° 0 mm 10 mps 748 mmHg 74%
    02:00 +6°C° 0 mm 10 mps 748 mmHg 73%
    03:00 +6°C° 0 mm 11 mps 749 mmHg 73%
    04:00 +6°C° 0 mm 11 mps 749 mmHg 73%
    05:00 +7°C° 0 mm 10 mps 749 mmHg 70%
    06:00 +7°C° 0 mm 10 mps 750 mmHg 68%
    07:00 +8°C° 0 mm 10 mps 750 mmHg 65%
    08:00 +9°C° 0 mm 10 mps 750 mmHg 65%
    09:00 +9°C° 0 mm 10 mps 750 mmHg 65%
    10:00 +11°C° 0 mm 10 mps 751 mmHg 64%
    11:00 +10°C° 0.1 mm 9 mps 751 mmHg 71%
    12:00 +9°C° 0.1 mm 8 mps 751 mmHg 77%
    13:00 +8°C° 0.1 mm 6 mps 751 mmHg 83%
    14:00 +8°C° 0.1 mm 6 mps 751 mmHg 83%
    15:00 +9°C° 0.1 mm 6 mps 751 mmHg 83%
    16:00 +9°C° 0.1 mm 7 mps 751 mmHg 82%
    17:00 +9°C° 0 mm 6 mps 750 mmHg 82%
    18:00 +9°C° 0 mm 6 mps 750 mmHg 82%
    19:00 +9°C° 0 mm 6 mps 750 mmHg 82%
    20:00 +8°C° 0 mm 7 mps 750 mmHg 81%
    21:00 +8°C° 0 mm 7 mps 749 mmHg 81%
    22:00 +7°C° 0 mm 8 mps 749 mmHg 80%
    23:00 +8°C° 0 mm 9 mps 749 mmHg 78%

    27 Enero, Lunes

    Tiempo Temperatura Precipitaciones Viento Presión Humedad
    00:00 +8°C° 0 mm 9 mps 748 mmHg 77%
    01:00 +8°C° 0 mm 9 mps 748 mmHg 76%
    02:00 +8°C° 0 mm 9 mps 747 mmHg 77%
    03:00 +8°C° 0 mm 9 mps 747 mmHg 79%
    04:00 +9°C° 0 mm 8 mps 746 mmHg 80%
    05:00 +10°C° 0 mm 8 mps 745 mmHg 80%
    06:00 +10°C° 0 mm 9 mps 745 mmHg 79%
    07:00 +10°C° 0 mm 9 mps 744 mmHg 79%
    08:00 +11°C° 0.1 mm 10 mps 744 mmHg 77%
    09:00 +11°C° 0.1 mm 11 mps 743 mmHg 75%
    10:00 +12°C° 0.1 mm 12 mps 743 mmHg 73%
    11:00 +11°C° 0.6 mm 11 mps 743 mmHg 78%
    12:00 +11°C° 0.6 mm 11 mps 743 mmHg 83%
    13:00 +9°C° 0.6 mm 10 mps 743 mmHg 88%
    14:00 +11°C° 0.2 mm 10 mps 743 mmHg 78%
    15:00 +11°C° 0.2 mm 9 mps 743 mmHg 68%
    16:00 +12°C° 0.2 mm 9 mps 743 mmHg 58%
    17:00 +11°C° 0 mm 8 mps 744 mmHg 61%
    18:00 +10°C° 0 mm 7 mps 744 mmHg 65%
    19:00 +9°C° 0 mm 6 mps 744 mmHg 68%
    20:00 +8°C° 0 mm 5 mps 744 mmHg 73%
    21:00 +7°C° 0 mm 4 mps 744 mmHg 77%
    22:00 +8°C° 0 mm 3 mps 744 mmHg 81%
    23:00 +8°C° 0 mm 2 mps 744 mmHg 82%
    Mostrar más